Weather History for Bartlesville, OK

Change the Weather History Date:

Friday, June 14, 2013

  Actual Average Record
Temperature  
Mean Temperature 80 °F -  
Max Temperature 95 °F 88 °F 102 °F (1953)
Min Temperature 66 °F 66 °F 52 °F (1962)
Cooling Degree Days 14    
Growing Degree Days 30 (Base 50)    
Moisture  
Dew Point 71 °F    
Average Humidity 75    
Maximum Humidity 100    
Minimum Humidity 52    
Precipitation  
Precipitation 0.00 in - - ()
Sea Level Pressure  
Sea Level Pressure 29.92 in    
Wind  
Wind Speed 3 mph (South)    
Max Wind Speed 10 mph    
Max Gust Speed 17 mph    
Visibility 10 miles    
Events      
Averages and records for this station are not official NWS values.
T = Trace of Precipitation, MM = Missing Value Source: NWS Daily Summary

Daily Weather History Graph

Daily Weather History Graph

Search for Another Location

Airport:

Trip Planner

Search our weather history database for the weather conditions in past years. The results will help you decide how hot, cold, wet, or windy it might be!

Date:

Astronomy

Jun. 14, 2013 Rise Set
Actual Time 6:04 AM CDT 8:44 PM CDT
Civil Twilight 5:33 AM CDT 9:15 PM CDT
Nautical Twilight 4:55 AM CDT 9:53 PM CDT
Astronomical Twilight 4:12 AM CDT 10:36 PM CDT
Moon 11:33 AM CDT (6/14) No Moon Set
Length of Visible Light 15h 41m
Length of Day
14h 39m
Waxing Crescent, 30% of the Moon is Illuminated
Jun 14
Waxing Crescent
Jun 16
First Quarter
Jun 23
Full
Jun 29
Last Quarter
Jul 8
New

Hourly Weather History & Observations

Time (CDT) Temp. Heat Index Dew Point Humidity Pressure Visibility Wind Dir Wind Speed Gust Speed Precip Events Conditions
12:53 AM 68.0 °F - 68.0 °F 100% 29.96 in 10.0 mi Calm Calm - N/A   Clear
1:53 AM 68.0 °F - 66.9 °F 96% 29.95 in 10.0 mi Calm Calm - N/A   Clear
2:53 AM 66.9 °F - 66.9 °F 100% 29.93 in 10.0 mi Calm Calm - N/A   Clear
3:53 AM 66.9 °F - 66.0 °F 97% 29.93 in 10.0 mi Calm Calm - N/A   Clear
4:53 AM 66.0 °F - 66.0 °F 100% 29.93 in 10.0 mi Calm Calm - N/A   Clear
5:53 AM 66.0 °F - 66.0 °F 100% 29.93 in 8.0 mi Calm Calm - N/A   Clear
6:53 AM 68.0 °F - 68.0 °F 100% 29.95 in 9.0 mi Calm Calm - N/A   Clear
7:53 AM 73.0 °F - 70.0 °F 90% 29.96 in 10.0 mi Calm Calm - N/A   Clear
8:53 AM 79.0 °F - 70.0 °F 74% 29.97 in 10.0 mi SSE 8.1 mph - N/A   Clear
9:53 AM 82.9 °F 88.0 °F 72.0 °F 69% 29.97 in 10.0 mi SSE 8.1 mph - N/A   Clear
10:53 AM 86.0 °F 93.0 °F 73.0 °F 65% 29.96 in 10.0 mi South 8.1 mph - N/A   Clear
11:53 AM 90.0 °F 100.2 °F 75.0 °F 61% 29.95 in 10.0 mi SSE 8.1 mph - N/A   Clear
12:53 PM 91.9 °F 103.2 °F 75.0 °F 58% 29.93 in 10.0 mi South 6.9 mph - N/A   Clear
1:53 PM 93.0 °F 103.2 °F 73.9 °F 54% 29.91 in 10.0 mi SSW 10.4 mph 17.3 mph N/A   Clear
2:53 PM 93.9 °F 105.4 °F 75.0 °F 54% 29.90 in 10.0 mi South 8.1 mph - N/A   Partly Cloudy
3:53 PM 93.9 °F 104.0 °F 73.9 °F 52% 29.88 in 10.0 mi SSW 10.4 mph - N/A   Clear
4:53 PM 93.0 °F 103.2 °F 73.9 °F 54% 29.88 in 10.0 mi South 8.1 mph - N/A   Partly Cloudy
5:53 PM 91.9 °F 100.7 °F 73.0 °F 54% 29.86 in 10.0 mi South 9.2 mph - N/A   Clear
6:53 PM 91.0 °F 99.3 °F 73.0 °F 55% 29.86 in 10.0 mi SSW 8.1 mph - N/A   Clear
7:53 PM 87.1 °F 94.5 °F 73.0 °F 63% 29.86 in 10.0 mi SSW 5.8 mph - N/A   Clear
8:53 PM 84.0 °F 90.2 °F 73.0 °F 69% 29.87 in 10.0 mi SSW 5.8 mph - N/A   Clear
9:53 PM 82.0 °F 87.9 °F 73.9 °F 76% 29.89 in 10.0 mi SSW 4.6 mph - N/A   Clear
10:53 PM 81.0 °F 85.8 °F 73.0 °F 77% 29.91 in 10.0 mi SSW 4.6 mph - N/A   Clear
11:53 PM 78.1 °F - 73.0 °F 84% 29.92 in 10.0 mi South 3.5 mph - N/A   Clear